West Palm Beach, FL

8:44 PM EST on November 11, 2019 (GMT -0500)
Palm Beach International

Weather History for KPBI - June, 2019

Change the Weather History Date:

Thursday, June 13, 2019

  Actual Average Record
Temperature  
Mean Temperature 84 °F 81 °F  
Max Temperature 91 °F 88 °F 96 °F (2011)
Min Temperature 76 °F 74 °F 60 °F (1920)
Degree Days  
Heating Degree Days 0 0  
Month to date heating degree days 0 0  
Since 1 June heating degree days 0 0  
Since 1 July heating degree days 144 233  
Cooling Degree Days 19 16  
Month to date cooling degree days 250 207  
Year to date cooling degree days 1651 1316  
Since 1 June cooling degree days 250 207  
Growing Degree Days 33 (Base 50)    
Moisture  
Dew Point 73 °F    
Average Humidity 74    
Maximum Humidity 88    
Minimum Humidity 59    
Precipitation  
Precipitation 0.75 in 0.29 in 2.24 in (1925)
Month to date precipitation 3.66 3.55  
Year to date precipitation 24.67 22.26  
Snow  
Snow 0.00 in - - ()
Month to date snowfall 0.0  
Since 1 June snowfall 0.0  
Since 1 July snowfall 0.0  
Snow Depth 0.00 in    
Sea Level Pressure  
Sea Level Pressure 30.05 in    
Wind  
Wind Speed 5 mph (North)    
Max Wind Speed 22 mph    
Max Gust Speed 27 mph    
Visibility 9 miles    
Events Rain , Thunderstorm    
T = Trace of Precipitation, MM = Missing Value Source: NWS Daily Summary

Daily Weather History Graph

Daily Weather History Graph

Search for Another Location

Airport or City:

Astronomy

Jun. 13, 2019 Rise Set
Actual Time 6:26 AM EDT 8:14 PM EDT
Civil Twilight 6:00 AM EDT 8:40 PM EDT
Nautical Twilight 5:28 AM EDT 9:12 PM EDT
Astronomical Twilight 4:55 AM EDT 9:45 PM EDT
Moon 4:48 PM EDT (6/13) 3:45 AM EDT (6/13)
Length of Visible Light 14h 40m
Length of Day
13h 48m
Waxing Gibbous, 85% of the Moon is Illuminated
Jun 13
Waxing Gibbous
Jun 17
Full
Jun 25
Last Quarter
Jul 2
New
Jul 9
First Quarter

Hourly Weather History & Observations

Time (EDT) Temp. Heat Index Dew Point Humidity Pressure Visibility Wind Dir Wind Speed Gust Speed Precip Events Conditions
12:53 AM 78.1 °F - 72.0 °F 81% 30.05 in 10.0 mi WNW 3.5 mph - N/A   Mostly Cloudy
1:53 AM 78.1 °F - 72.0 °F 81% 30.03 in 10.0 mi Calm Calm - N/A   Scattered Clouds
2:53 AM 78.1 °F - 72.0 °F 81% 30.02 in 10.0 mi Calm Calm - N/A   Scattered Clouds
3:53 AM 79.0 °F - 72.0 °F 79% 30.01 in 10.0 mi South 3.5 mph - N/A   Scattered Clouds
4:53 AM 78.1 °F - 73.0 °F 84% 30.01 in 10.0 mi Calm Calm - N/A   Partly Cloudy
5:53 AM 78.1 °F - 72.0 °F 81% 30.01 in 10.0 mi Calm Calm - N/A   Partly Cloudy
6:53 AM 78.1 °F - 73.9 °F 87% 30.03 in 10.0 mi Calm Calm - N/A   Partly Cloudy
7:53 AM 81.0 °F 86.7 °F 75.0 °F 82% 30.03 in 10.0 mi South 4.6 mph - N/A   Partly Cloudy
8:53 AM 84.9 °F 94.1 °F 75.9 °F 74% 30.05 in 10.0 mi South 6.9 mph - N/A   Scattered Clouds
9:53 AM 87.1 °F 95.4 °F 73.9 °F 65% 30.06 in 10.0 mi South 8.1 mph - N/A   Scattered Clouds
10:53 AM 88.0 °F 95.6 °F 73.0 °F 61% 30.07 in 10.0 mi South 6.9 mph - N/A   Scattered Clouds
11:53 AM 88.0 °F 95.6 °F 73.0 °F 61% 30.06 in 10.0 mi SSE 6.9 mph - N/A   Mostly Cloudy
12:53 PM 89.1 °F 98.0 °F 73.9 °F 61% 30.04 in 10.0 mi ESE 12.7 mph - N/A   Mostly Cloudy
1:05 PM 88.0 °F 96.5 °F 73.9 °F 63% 30.05 in 10.0 mi ESE 11.5 mph - N/A Thunderstorm Thunderstorm
1:36 PM 84.0 °F 91.9 °F 75.0 °F 74% 30.05 in 2.0 mi NNE 12.7 mph 18.4 mph 0.03 in Rain , Thunderstorm Heavy Thunderstorms and Rain
1:38 PM 82.0 °F 87.4 °F 73.0 °F 74% 30.05 in 2.0 mi NNE 13.8 mph 21.9 mph 0.05 in Rain , Thunderstorm Heavy Thunderstorms and Rain
1:44 PM 78.1 °F - 73.9 °F 87% 30.07 in 1.0 mi NE 17.3 mph 27.6 mph 0.16 in Rain , Thunderstorm Heavy Thunderstorms and Rain
1:46 PM 77.0 °F - 71.1 °F 82% 30.06 in 0.8 mi North 11.5 mph 27.6 mph 0.27 in Rain , Thunderstorm Heavy Thunderstorms and Rain
1:57 PM 78.1 °F - 71.1 °F 79% 30.05 in 7.0 mi NE 4.6 mph - 0.07 in Rain , Thunderstorm Thunderstorms and Rain
2:22 PM 81.0 °F 87.3 °F 75.9 °F 85% 30.03 in 10.0 mi NNW 3.5 mph - 0.13 in Thunderstorm Thunderstorm
2:35 PM 82.9 °F 91.8 °F 77.0 °F 82% 30.03 in 10.0 mi Calm Calm - 0.13 in   Mostly Cloudy
2:53 PM 84.9 °F 95.3 °F 77.0 °F 77% 30.02 in 10.0 mi South 5.8 mph - 0.13 in   Mostly Cloudy
3:53 PM 80.1 °F 84.2 °F 73.0 °F 79% 30.03 in 10.0 mi SW 8.1 mph - 0.01 in Rain Light Rain
4:53 PM 81.0 °F 86.7 °F 75.0 °F 82% 30.03 in 10.0 mi Calm Calm - 0.05 in   Mostly Cloudy
5:53 PM 80.1 °F 84.2 °F 73.0 °F 79% 30.06 in 10.0 mi NW 10.4 mph - 0.00 in Rain Light Rain
6:00 PM 80.1 °F 84.5 °F 73.9 °F 81% 30.06 in 10.0 mi NW 11.5 mph - 0.00 in Thunderstorm Thunderstorm
6:46 PM 77.0 °F - 71.1 °F 82% 30.05 in 10.0 mi North 6.9 mph - 0.00 in Rain Light Rain
6:53 PM 77.0 °F - 71.1 °F 82% 30.05 in 10.0 mi North 6.9 mph - 0.00 in Rain Light Rain
7:53 PM 78.1 °F - 72.0 °F 81% 30.05 in 10.0 mi North 3.5 mph - 0.01 in   Mostly Cloudy
8:53 PM 77.0 °F - 73.9 °F 90% 30.08 in 10.0 mi NNW 5.8 mph - N/A   Mostly Cloudy
9:53 PM 77.0 °F - 73.9 °F 90% 30.08 in 10.0 mi NNW 6.9 mph - N/A   Mostly Cloudy
10:53 PM 77.0 °F - 73.0 °F 88% 30.09 in 10.0 mi NNE 4.6 mph - N/A   Scattered Clouds
11:53 PM 77.0 °F - 73.0 °F 88% 30.10 in 10.0 mi SSW 3.5 mph - N/A   Overcast